Location: Peterborough
(44.3091°N, 78.3197°W)
Time: 03:56:20
(UTC-04:00)

Tiros 1 - Pass Details

Date: 07 April 2023
Orbit: 627 x 661 km, 48.4° (Epoch: 09 June)

Event Time Altitude Azimuth Distance (km) Brightness Sun altitude
Rises 03:02:13 0° 257° (WSW) 2,960 - -33.6°
Reaches altitude 10° 03:04:34 10° 260° (W) 2,056 - -33.3°
Maximum altitude 03:09:18 68° 344° (NNW) 709 - -32.9°
Exits shadow 03:11:40 29° 60° (ENE) 1,204 8.9 -32.6°
Drops below altitude 10° 03:14:05 10° 67° (ENE) 2,076 10.4 -32.4°
Sets 03:16:27 0° 70° (ENE) 2,991 11.3 -32.1°
